| time (UTC) | temp C | wind direction | speed KPH | gust KPH | rain 1hr cm | rain 24hr cm | rain mn cm | humidity % | barometer mb |
| 20260901020722 | 21 | 120 | 1.6 | 6.4 | 0.00 | 0.03 | 0.03 | 68 | 1027.3 |
| 20260901020225 | 21 | 120 | 1.6 | 6.4 | 0.00 | 0.03 | 0.03 | 68 | 1027.4 |
| 20260901015700 | 21 | 120 | 1.6 | 6.4 | 0.00 | 0.03 | 0.03 | 69 | 1027.4 |
| 20260901015158 | 21 | 175 | 1.6 | 8.0 | 0.00 | 0.03 | 0.03 | 71 | 1027.4 |
| 20260901014659 | 21 | 175 | 1.6 | 8.0 | 0.00 | 0.03 | 0.03 | 71 | 1027.5 |
| 20260901014155 | 21 | 141 | 1.6 | 8.0 | 0.00 | 0.03 | 0.03 | 71 | 1027.7 |
| 20260901013652 | 21 | 126 | 1.6 | 8.0 | 0.00 | 0.03 | 0.03 | 71 | 1027.8 |
| 20260901013151 | 21 | 118 | 3.2 | 8.0 | 0.00 | 0.03 | 0.03 | 70 | 1027.9 |
| 20260901012649 | 22 | 118 | 3.2 | 8.0 | 0.00 | 0.03 | 0.03 | 69 | 1028.0 |
| 20260901012408 | 22 | 119 | 3.2 | 8.0 | 0.00 | 0.03 | 0.03 | 70 | 1028.1 |
| 20260901011912 | 22 | 117 | 1.6 | 6.4 | 0.00 | 0.03 | 0.03 | 70 | 1028.2 |
| 20260901011149 | 22 | 199 | 1.6 | 8.0 | 0.00 | 0.03 | 0.03 | 70 | 1028.3 |
| 20260901010640 | 22 | 120 | 1.6 | 8.0 | 0.00 | 0.03 | 0.03 | 71 | 1028.4 |
| 20260901010138 | 22 | 122 | 1.6 | 11.3 | 0.00 | 0.03 | 0.03 | 73 | 1028.4 |
| 20260901005636 | 21 | 48 | 1.6 | 11.3 | 0.00 | 0.03 | 0.03 | 74 | 1028.5 |
| 20260901005137 | 21 | 99 | 1.6 | 9.7 | 0.00 | 0.03 | 0.03 | 74 | 1028.6 |
| 20260901004636 | 21 | 99 | 3.2 | 9.7 | 0.00 | 0.03 | 0.03 | 77 | 1028.7 |
| 20260901004354 | 21 | 212 | 4.8 | 8.0 | 0.00 | 0.03 | 0.03 | 78 | 1028.8 |
| 20260901003637 | 21 | 233 | 4.8 | 8.0 | 0.00 | 0.03 | 0.03 | 79 | 1028.8 |
| 20260901003113 | 20 | 135 | 4.8 | 8.0 | 0.00 | 0.03 | 0.03 | 81 | 1029.0 |
| 20260901002612 | 20 | 199 | 4.8 | 8.0 | 0.00 | 0.03 | 0.03 | 82 | 1029.1 |
| 20260901002109 | 20 | 122 | 3.2 | 9.7 | 0.00 | 0.03 | 0.03 | 83 | 1029.2 |
| 20260901001607 | 20 | 196 | 4.8 | 12.9 | 0.00 | 0.03 | 0.03 | 86 | 1029.4 |
| 20260901001105 | 19 | 202 | 4.8 | 12.9 | 0.00 | 0.03 | 0.03 | 87 | 1029.5 |
| 20260901000837 | 19 | 239 | 3.2 | 11.3 | 0.00 | 0.03 | 0.03 | 89 | 1029.6 |
| 20260901000109 | 18 | 165 | 3.2 | 8.0 | 0.00 | 0.03 | 0.03 | 90 | 1029.6 |
| 20260831235602 | 18 | 224 | 3.2 | 9.7 | 0.00 | 0.03 | 0.03 | 90 | 1029.6 |
| 20260831235059 | 18 | 154 | 3.2 | 9.7 | 0.00 | 0.03 | 0.03 | 91 | 1029.8 |
| 20260831234557 | 18 | 185 | 1.6 | 8.0 | 0.00 | 0.03 | 0.03 | 92 | 1029.7 |
| 20260831234326 | 17 | 201 | 1.6 | 6.4 | 0.00 | 0.03 | 0.03 | 93 | 1029.7 |
| 20260831233552 | 17 | 202 | 3.2 | 6.4 | 0.00 | 0.03 | 0.03 | 92 | 1029.7 |
| 20260831233050 | 17 | 199 | 3.2 | 6.4 | 0.00 | 0.03 | 0.03 | 93 | 1029.7 |
| 20260831232553 | 17 | 180 | 3.2 | 8.0 | 0.00 | 0.03 | 0.03 | 93 | 1029.7 |
| 20260831232041 | 17 | 180 | 3.2 | 8.0 | 0.00 | 0.03 | 0.03 | 93 | 1029.7 |
| 20260831231801 | 17 | 199 | 3.2 | 6.4 | 0.03 | 0.03 | 0.03 | 93 | 1029.6 |
| 20260831231038 | 17 | 203 | 3.2 | 11.3 | 0.03 | 0.03 | 0.03 | 93 | 1029.6 |
| 20260831230536 | 17 | 223 | 4.8 | 11.3 | 0.03 | 0.03 | 0.03 | 93 | 1029.6 |
| 20260831230051 | 16 | 185 | 4.8 | 11.3 | 0.03 | 0.03 | 0.03 | 93 | 1029.7 |
| 20260831225753 | 16 | 201 | 3.2 | 9.7 | 0.03 | 0.03 | 0.03 | 93 | 1029.7 |
| 20260831225030 | 16 | 205 | 3.2 | 8.0 | 0.03 | 0.03 | 0.03 | 93 | 1029.7 |
| 20260831224531 | 16 | 170 | 3.2 | 11.3 | 0.03 | 0.03 | 0.03 | 93 | 1029.7 |
| 20260831224033 | 16 | 185 | 3.2 | 11.3 | 0.03 | 0.03 | 0.03 | 93 | 1029.7 |
| 20260831223528 | 16 | 185 | 1.6 | 6.4 | 0.03 | 0.03 | 0.03 | 93 | 1029.7 |
| 20260831223258 | 16 | 175 | 0.0 | 4.8 | 0.03 | 0.03 | 0.03 | 93 | 1029.8 |
| 20260831222529 | 16 | 175 | 1.6 | 6.4 | 0.03 | 0.03 | 0.03 | 93 | 1029.8 |
| 20260831222026 | 16 | 175 | 3.2 | 6.4 | 0.03 | 0.03 | 0.03 | 93 | 1029.8 |
| 20260831221529 | 15 | 180 | 3.2 | 6.4 | 0.00 | 0.00 | 0.00 | 93 | 1029.7 |
| 20260831221001 | 15 | 180 | 3.2 | 6.4 | 0.00 | 0.00 | 0.00 | 92 | 1029.7 |
| 20260831220435 | 15 | 161 | 1.6 | 4.8 | 0.00 | 0.00 | 0.00 | 92 | 1029.6 |
| 20260831220347 | 15 | 161 | 1.6 | 4.8 | 0.00 | 0.00 | 0.00 | 92 | 1029.6 |
| 20260831215341 | 15 | 161 | 1.6 | 4.8 | 0.00 | 0.00 | 0.00 | 92 | 1029.5 |
| 20260831214818 | 15 | 246 | 0.0 | 3.2 | 0.00 | 0.00 | 0.00 | 92 | 1029.5 |
| 20260831214253 | 15 | 246 | 0.0 | 3.2 | 0.00 | 0.00 | 0.00 | 92 | 1029.4 |
| 20260831213727 | 15 | 246 | 0.0 | 1.6 | 0.00 | 0.00 | 0.00 | 92 | 1029.5 |
| 20260831213157 | 14 | 246 | 0.0 | 0.0 | 0.00 | 0.00 | 0.00 | 92 | 1029.3 |
| 20260831212628 | 14 | 246 | 0.0 | 1.6 | 0.00 | 0.00 | 0.00 | 92 | 1029.3 |
| 20260831212106 | 14 | 246 | 0.0 | 1.6 | 0.00 | 0.00 | 0.00 | 92 | 1029.2 |
| 20260831211539 | 14 | 246 | 0.0 | 4.8 | 0.00 | 0.00 | 0.00 | 92 | 1029.1 |
| 20260831211008 | 14 | 246 | 0.0 | 4.8 | 0.00 | 0.00 | 0.00 | 92 | 1028.9 |
| 20260831210922 | 13 | 246 | 0.0 | 4.8 | 0.00 | 0.00 | 0.00 | 92 | 1028.9 |
| 20260831205930 | 13 | 246 | 0.0 | 4.8 | 0.00 | 0.00 | 0.00 | 91 | 1028.9 |
| 20260831205429 | 13 | 246 | 0.0 | 3.2 | 0.00 | 0.00 | 0.00 | 91 | 1028.8 |
| 20260831204923 | 13 | 246 | 0.0 | 4.8 | 0.00 | 0.00 | 0.00 | 91 | 1028.7 |
| 20260831204423 | 13 | 246 | 0.0 | 4.8 | 0.00 | 0.00 | 0.00 | 91 | 1028.6 |
| 20260831203920 | 13 | 246 | 0.0 | 3.2 | 0.00 | 0.00 | 0.00 | 91 | 1028.5 |
| 20260831203420 | 13 | 246 | 0.0 | 3.2 | 0.00 | 0.00 | 0.00 | 91 | 1028.5 |
| 20260831202921 | 13 | 246 | 0.0 | 3.2 | 0.00 | 0.00 | 0.00 | 91 | 1028.4 |
| 20260831202418 | 13 | 246 | 0.0 | 3.2 | 0.00 | 0.00 | 0.00 | 91 | 1028.3 |
| 20260831201918 | 13 | 246 | 0.0 | 3.2 | 0.00 | 0.00 | 0.00 | 91 | 1028.3 |
| 20260831201412 | 13 | 246 | 0.0 | 1.6 | 0.00 | 0.00 | 0.00 | 91 | 1028.3 |
| 20260831200911 | 13 | 246 | 0.0 | 0.0 | 0.00 | 0.00 | 0.00 | 91 | 1028.4 |
| 20260831200410 | 13 | 246 | 0.0 | 1.6 | 0.00 | 0.00 | 0.00 | 91 | 1028.2 |
| 20260831195912 | 13 | 246 | 0.0 | 1.6 | 0.00 | 0.00 | 0.00 | 91 | 1028.2 |
| 20260831195342 | 13 | 246 | 0.0 | 1.6 | 0.00 | 0.00 | 0.00 | 91 | 1028.1 |
| 20260831194820 | 13 | 246 | 0.0 | 1.6 | 0.00 | 0.00 | 0.00 | 91 | 1027.9 |
| 20260831194541 | 13 | 246 | 0.0 | 1.6 | 0.00 | 0.00 | 0.00 | 91 | 1027.8 |
| 20260831193804 | 13 | 246 | 0.0 | 1.6 | 0.00 | 0.00 | 0.00 | 91 | 1027.9 |
| 20260831193306 | 13 | 246 | 0.0 | 3.2 | 0.00 | 0.00 | 0.00 | 91 | 1027.9 |
| 20260831192747 | 13 | 246 | 0.0 | 3.2 | 0.00 | 0.00 | 0.00 | 91 | 1027.9 |
| 20260831192509 | 13 | 246 | 0.0 | 3.2 | 0.00 | 0.00 | 0.00 | 91 | 1027.7 |
| 20260831191722 | 13 | 246 | 0.0 | 4.8 | 0.00 | 0.00 | 0.00 | 91 | 1027.6 |
| 20260831191223 | 13 | 246 | 0.0 | 4.8 | 0.00 | 0.00 | 0.00 | 91 | 1027.6 |
| 20260831190708 | 13 | 246 | 1.6 | 4.8 | 0.00 | 0.00 | 0.00 | 91 | 1027.6 |
| 20260831190424 | 13 | 246 | 1.6 | 4.8 | 0.00 | 0.00 | 0.00 | 91 | 1027.7 |
| 20260831185640 | 13 | 247 | 3.2 | 4.8 | 0.00 | 0.00 | 0.00 | 91 | 1027.7 |
| 20260831185140 | 13 | 247 | 3.2 | 8.0 | 0.00 | 0.00 | 0.00 | 91 | 1027.7 |
| 20260831184636 | 13 | 247 | 1.6 | 8.0 | 0.00 | 0.00 | 0.00 | 91 | 1027.7 |
| 20260831184134 | 13 | 204 | 1.6 | 4.8 | 0.00 | 0.00 | 0.00 | 91 | 1027.7 |
| 20260831183633 | 13 | 210 | 0.0 | 3.2 | 0.00 | 0.00 | 0.00 | 92 | 1027.6 |
| 20260831183133 | 13 | 210 | 0.0 | 4.8 | 0.00 | 0.00 | 0.00 | 92 | 1027.5 |
| 20260831182631 | 13 | 210 | 0.0 | 4.8 | 0.00 | 0.00 | 0.00 | 92 | 1027.5 |
| 20260831182130 | 12 | 210 | 0.0 | 3.2 | 0.00 | 0.00 | 0.00 | 91 | 1027.5 |
| 20260831181629 | 12 | 210 | 0.0 | 1.6 | 0.00 | 0.00 | 0.00 | 91 | 1027.6 |
| 20260831181358 | 12 | 210 | 0.0 | 1.6 | 0.00 | 0.00 | 0.00 | 91 | 1027.6 |
| 20260831181114 | 12 | 210 | 0.0 | 0.0 | 0.00 | 0.00 | 0.00 | 91 | 1027.6 |
| 20260831180122 | 12 | 210 | 0.0 | 1.6 | 0.00 | 0.00 | 0.00 | 91 | 1027.6 |
| 20260831175620 | 12 | 210 | 0.0 | 1.6 | 0.00 | 0.00 | 0.00 | 91 | 1027.5 |
| 20260831175121 | 12 | 210 | 0.0 | 1.6 | 0.00 | 0.00 | 0.00 | 91 | 1027.5 |
| 20260831174610 | 12 | 210 | 0.0 | 1.6 | 0.00 | 0.00 | 0.00 | 91 | 1027.5 |
| 20260831174108 | 12 | 210 | 0.0 | 1.6 | 0.00 | 0.00 | 0.00 | 91 | 1027.5 |
| 20260831173606 | 12 | 210 | 0.0 | 0.0 | 0.00 | 0.00 | 0.00 | 91 | 1027.6 |
| 20260831173104 | 12 | 210 | 0.0 | 0.0 | 0.00 | 0.00 | 0.00 | 90 | 1027.7 |
| 20260831172604 | 12 | 210 | 0.0 | 0.0 | 0.00 | 0.00 | 0.00 | 90 | 1027.6 |
| 20260831172101 | 12 | 210 | 0.0 | 0.0 | 0.00 | 0.00 | 0.00 | 90 | 1027.6 |
| 20260831171559 | 12 | 210 | 0.0 | 1.6 | 0.00 | 0.00 | 0.00 | 90 | 1027.6 |
| 20260831171100 | 12 | 210 | 0.0 | 1.6 | 0.00 | 0.00 | 0.00 | 90 | 1027.6 |
| 20260831170554 | 12 | 210 | 0.0 | 1.6 | 0.00 | 0.00 | 0.00 | 90 | 1027.6 |
| 20260831170104 | 12 | 210 | 0.0 | 1.6 | 0.00 | 0.00 | 0.00 | 90 | 1027.7 |
| 20260831165550 | 12 | 210 | 0.0 | 1.6 | 0.00 | 0.00 | 0.00 | 89 | 1027.7 |
| 20260831165051 | 12 | 210 | 0.0 | 1.6 | 0.00 | 0.00 | 0.00 | 89 | 1027.8 |
| 20260831164548 | 12 | 210 | 0.0 | 1.6 | 0.00 | 0.00 | 0.00 | 89 | 1027.8 |
| 20260831164046 | 12 | 210 | 0.0 | 1.6 | 0.00 | 0.00 | 0.00 | 89 | 1027.8 |
| 20260831163543 | 12 | 210 | 0.0 | 1.6 | 0.00 | 0.00 | 0.00 | 89 | 1027.8 |
| 20260831163527 | 12 | 210 | 0.0 | 0.0 | 0.00 | 0.00 | 0.00 | 89 | 1027.8 |
| 20260831162542 | 12 | 210 | 0.0 | 0.0 | 0.00 | 0.00 | 0.00 | 89 | 1027.8 |
| 20260831162037 | 12 | 210 | 0.0 | 0.0 | 0.00 | 0.00 | 0.00 | 88 | 1027.9 |
| 20260831161538 | 12 | 210 | 0.0 | 0.0 | 0.00 | 0.00 | 0.00 | 88 | 1027.9 |
| 20260831161038 | 12 | 210 | 0.0 | 0.0 | 0.00 | 0.00 | 0.00 | 89 | 1028.0 |
| 20260831160532 | 12 | 210 | 0.0 | 0.0 | 0.00 | 0.00 | 0.00 | 88 | 1028.0 |
| 20260831160030 | 12 | 210 | 0.0 | 1.6 | 0.00 | 0.00 | 0.00 | 88 | 1028.1 |
| 20260831155528 | 12 | 210 | 0.0 | 1.6 | 0.00 | 0.00 | 0.00 | 88 | 1028.2 |
| 20260831155029 | 13 | 210 | 0.0 | 1.6 | 0.00 | 0.00 | 0.00 | 88 | 1028.3 |
| 20260831154501 | 13 | 210 | 0.0 | 1.6 | 0.00 | 0.00 | 0.00 | 88 | 1028.3 |
| 20260831154001 | 13 | 210 | 0.0 | 0.0 | 0.00 | 0.00 | 0.00 | 88 | 1028.4 |
| 20260831153458 | 13 | 210 | 0.0 | 0.0 | 0.00 | 0.00 | 0.00 | 87 | 1028.4 |
| 20260831152956 | 13 | 210 | 0.0 | 0.0 | 0.00 | 0.00 | 0.00 | 87 | 1028.5 |
| 20260831152454 | 13 | 210 | 0.0 | 0.0 | 0.00 | 0.00 | 0.00 | 87 | 1028.5 |
| 20260831151951 | 13 | 210 | 0.0 | 0.0 | 0.00 | 0.00 | 0.00 | 87 | 1028.5 |
| 20260831151716 | 13 | 210 | 0.0 | 0.0 | 0.00 | 0.00 | 0.00 | 87 | 1028.5 |
| 20260831150953 | 13 | 210 | 0.0 | 0.0 | 0.00 | 0.00 | 0.00 | 87 | 1028.5 |
| 20260831150715 | 13 | 210 | 0.0 | 0.0 | 0.00 | 0.00 | 0.00 | 87 | 1028.5 |
| 20260831145948 | 13 | 210 | 0.0 | 0.0 | 0.00 | 0.00 | 0.00 | 86 | 1028.5 |
| 20260831145923 | 13 | 210 | 0.0 | 0.0 | 0.00 | 0.00 | 0.00 | 86 | 1028.6 |
| 20260831144939 | 13 | 210 | 0.0 | 0.0 | 0.00 | 0.00 | 0.00 | 86 | 1028.6 |
| 20260831144437 | 14 | 210 | 0.0 | 0.0 | 0.00 | 0.00 | 0.00 | 86 | 1028.6 |
| 20260831143952 | 14 | 210 | 0.0 | 0.0 | 0.00 | 0.00 | 0.00 | 86 | 1028.7 |
| 20260831143411 | 14 | 210 | 0.0 | 0.0 | 0.00 | 0.00 | 0.00 | 86 | 1028.8 |
| 20260831142852 | 14 | 210 | 0.0 | 0.0 | 0.00 | 0.00 | 0.00 | 86 | 1028.8 |
| 20260831142353 | 14 | 210 | 0.0 | 0.0 | 0.00 | 0.00 | 0.00 | 86 | 1028.9 |
| 20260831141827 | 14 | 210 | 0.0 | 0.0 | 0.00 | 0.00 | 0.00 | 86 | 1028.9 |
| 20260831141325 | 15 | 210 | 0.0 | 3.2 | 0.00 | 0.00 | 0.00 | 86 | 1029.0 |
| 20260831140822 | 15 | 210 | 0.0 | 3.2 | 0.00 | 0.00 | 0.00 | 86 | 1029.1 |
| 20260831140319 | 15 | 210 | 0.0 | 3.2 | 0.00 | 0.00 | 0.00 | 86 | 1029.1 |
| 20260831140046 | 15 | 210 | 0.0 | 3.2 | 0.00 | 0.00 | 0.00 | 86 | 1029.1 |
| 20260831135539 | 15 | 210 | 1.6 | 3.2 | 0.00 | 0.00 | 0.00 | 85 | 1029.1 |
| 20260831134819 | 15 | 210 | 0.0 | 3.2 | 0.00 | 0.00 | 0.00 | 85 | 1029.1 |
| 20260831134312 | 15 | 210 | 0.0 | 1.6 | 0.00 | 0.00 | 0.00 | 85 | 1029.2 |
| 20260831133811 | 15 | 210 | 0.0 | 3.2 | 0.00 | 0.00 | 0.00 | 85 | 1029.2 |
| 20260831133308 | 15 | 210 | 0.0 | 3.2 | 0.00 | 0.00 | 0.00 | 85 | 1029.3 |
| 20260831132808 | 15 | 210 | 0.0 | 3.2 | 0.00 | 0.00 | 0.00 | 84 | 1029.3 |
| 20260831132259 | 16 | 210 | 0.0 | 3.2 | 0.00 | 0.00 | 0.00 | 84 | 1029.3 |
| 20260831132023 | 16 | 210 | 0.0 | 1.6 | 0.00 | 0.00 | 0.00 | 84 | 1029.4 |
| 20260831131255 | 16 | 210 | 0.0 | 1.6 | 0.00 | 0.00 | 0.00 | 84 | 1029.4 |
| 20260831130759 | 16 | 210 | 0.0 | 0.0 | 0.00 | 0.00 | 0.00 | 84 | 1029.5 |
| 20260831130246 | 16 | 210 | 0.0 | 0.0 | 0.00 | 0.00 | 0.00 | 83 | 1029.5 |
| 20260831125749 | 16 | 210 | 0.0 | 1.6 | 0.00 | 0.00 | 0.00 | 83 | 1029.5 |
| 20260831125214 | 16 | 210 | 0.0 | 1.6 | 0.00 | 0.00 | 0.00 | 83 | 1029.5 |
| 20260831124712 | 16 | 210 | 0.0 | 1.6 | 0.00 | 0.00 | 0.00 | 83 | 1029.6 |
| 20260831124211 | 17 | 210 | 0.0 | 1.6 | 0.00 | 0.00 | 0.00 | 83 | 1029.6 |
| 20260831123707 | 17 | 210 | 0.0 | 1.6 | 0.00 | 0.00 | 0.00 | 83 | 1029.6 |
| 20260831123431 | 17 | 210 | 0.0 | 1.6 | 0.00 | 0.00 | 0.00 | 83 | 1029.7 |
| 20260831122703 | 17 | 210 | 0.0 | 1.6 | 0.00 | 0.00 | 0.00 | 83 | 1029.7 |
| 20260831122216 | 17 | 210 | 0.0 | 3.2 | 0.00 | 0.00 | 0.00 | 83 | 1029.7 |
| 20260831121920 | 17 | 210 | 1.6 | 3.2 | 0.00 | 0.00 | 0.00 | 83 | 1029.7 |
| 20260831121158 | 17 | 210 | 0.0 | 3.2 | 0.00 | 0.00 | 0.00 | 83 | 1029.7 |
| 20260831120909 | 17 | 210 | 0.0 | 1.6 | 0.00 | 0.00 | 0.00 | 83 | 1029.7 |
| 20260831120151 | 17 | 210 | 0.0 | 4.8 | 0.00 | 0.00 | 0.00 | 83 | 1029.7 |
| 20260831115655 | 17 | 210 | 1.6 | 8.0 | 0.00 | 0.00 | 0.00 | 83 | 1029.7 |
| 20260831115145 | 17 | 227 | 1.6 | 8.0 | 0.00 | 0.00 | 0.00 | 83 | 1029.6 |
| 20260831114918 | 17 | 127 | 3.2 | 8.0 | 0.00 | 0.00 | 0.00 | 83 | 1029.7 |
| 20260831114142 | 17 | 118 | 3.2 | 11.3 | 0.00 | 0.00 | 0.00 | 83 | 1029.7 |
| 20260831113645 | 17 | 119 | 3.2 | 11.3 | 0.00 | 0.00 | 0.00 | 82 | 1029.7 |
| 20260831113119 | 17 | 117 | 4.8 | 11.3 | 0.00 | 0.00 | 0.00 | 82 | 1029.7 |
| 20260831112552 | 17 | 119 | 4.8 | 11.3 | 0.00 | 0.00 | 0.00 | 82 | 1029.8 |
| 20260831112054 | 17 | 103 | 4.8 | 9.7 | 0.00 | 0.00 | 0.00 | 82 | 1029.8 |
| 20260831111537 | 17 | 118 | 3.2 | 12.9 | 0.00 | 0.00 | 0.00 | 82 | 1029.8 |
| 20260831111048 | 17 | 117 | 3.2 | 12.9 | 0.00 | 0.00 | 0.00 | 81 | 1029.8 |
| 20260831110529 | 17 | 120 | 3.2 | 8.0 | 0.00 | 0.00 | 0.00 | 81 | 1029.7 |
| 20260831110027 | 17 | 125 | 3.2 | 12.9 | 0.00 | 0.00 | 0.00 | 81 | 1029.7 |
| 20260831105525 | 17 | 116 | 4.8 | 14.5 | 0.00 | 0.00 | 0.00 | 81 | 1029.7 |
| 20260831105024 | 17 | 124 | 4.8 | 14.5 | 0.00 | 0.00 | 0.00 | 81 | 1029.6 |
| 20260831104523 | 17 | 126 | 4.8 | 14.5 | 0.00 | 0.00 | 0.00 | 82 | 1029.6 |
| 20260831104019 | 17 | 120 | 6.4 | 16.1 | 0.00 | 0.00 | 0.00 | 83 | 1029.6 |
| 20260831103518 | 17 | 129 | 4.8 | 16.1 | 0.00 | 0.00 | 0.00 | 84 | 1029.6 |
| 20260831103018 | 17 | 125 | 1.6 | 12.9 | 0.00 | 0.00 | 0.00 | 84 | 1029.5 |
| 20260831102518 | 17 | 111 | 1.6 | 4.8 | 0.00 | 0.00 | 0.00 | 85 | 1029.5 |
| 20260831102234 | 17 | 111 | 1.6 | 3.2 | 0.00 | 0.00 | 0.00 | 84 | 1029.5 |
| 20260831101738 | 17 | 111 | 0.0 | 3.2 | 0.00 | 0.00 | 0.00 | 84 | 1029.5 |
| 20260831101320 | 17 | 111 | 0.0 | 1.6 | 0.00 | 0.00 | 0.00 | 84 | 1029.5 |
| 20260831101211 | 17 | 111 | 0.0 | 1.6 | 0.00 | 0.00 | 0.00 | 84 | 1029.4 |
| 20260831100228 | 17 | 111 | 0.0 | 0.0 | 0.00 | 0.00 | 0.00 | 83 | 1029.3 |
| 20260831095508 | 17 | 111 | 0.0 | 0.0 | 0.00 | 0.00 | 0.00 | 83 | 1029.3 |
| 20260831094941 | 17 | 111 | 0.0 | 1.6 | 0.00 | 0.00 | 0.00 | 83 | 1029.2 |
| 20260831094422 | 17 | 111 | 0.0 | 1.6 | 0.00 | 0.00 | 0.00 | 83 | 1029.2 |
| 20260831093924 | 17 | 111 | 0.0 | 1.6 | 0.00 | 0.00 | 0.00 | 83 | 1029.1 |
| 20260831093401 | 17 | 111 | 0.0 | 1.6 | 0.00 | 0.00 | 0.00 | 83 | 1029.1 |
| 20260831092847 | 17 | 111 | 0.0 | 3.2 | 0.00 | 0.00 | 0.00 | 83 | 1029.1 |
| 20260831092347 | 17 | 111 | 0.0 | 3.2 | 0.00 | 0.00 | 0.00 | 84 | 1029.1 |
| 20260831091818 | 17 | 111 | 0.0 | 3.2 | 0.00 | 0.00 | 0.00 | 83 | 1029.1 |
| 20260831091304 | 17 | 111 | 0.0 | 3.2 | 0.00 | 0.00 | 0.00 | 83 | 1029.1 |
| 20260831090804 | 17 | 111 | 0.0 | 3.2 | 0.00 | 0.00 | 0.00 | 83 | 1029.1 |
| 20260831090316 | 17 | 111 | 0.0 | 3.2 | 0.00 | 0.00 | 0.00 | 83 | 1029.1 |
| 20260831085805 | 17 | 111 | 0.0 | 3.2 | 0.00 | 0.00 | 0.00 | 82 | 1029.0 |
| 20260831085306 | 17 | 111 | 0.0 | 3.2 | 0.00 | 0.00 | 0.00 | 81 | 1029.0 |
| 20260831084804 | 17 | 111 | 0.0 | 3.2 | 0.00 | 0.00 | 0.00 | 80 | 1029.0 |
| 20260831084301 | 17 | 111 | 0.0 | 3.2 | 0.00 | 0.00 | 0.00 | 80 | 1028.9 |
| 20260831084020 | 17 | 111 | 1.6 | 6.4 | 0.00 | 0.00 | 0.00 | 80 | 1028.7 |
| 20260831083300 | 18 | 111 | 1.6 | 6.4 | 0.00 | 0.00 | 0.00 | 80 | 1028.7 |
| 20260831082757 | 18 | 111 | 1.6 | 6.4 | 0.00 | 0.00 | 0.00 | 79 | 1028.6 |
| 20260831082255 | 18 | 112 | 3.2 | 6.4 | 0.00 | 0.00 | 0.00 | 79 | 1028.6 |
| 20260831081751 | 18 | 109 | 3.2 | 8.0 | 0.00 | 0.00 | 0.00 | 79 | 1028.6 |
| 20260831081254 | 18 | 125 | 1.6 | 8.0 | 0.00 | 0.00 | 0.00 | 79 | 1028.5 |
| 20260831080952 | 18 | 124 | 1.6 | 8.0 | 0.00 | 0.00 | 0.00 | 78 | 1028.5 |
| 20260831080157 | 18 | 124 | 1.6 | 8.0 | 0.00 | 0.00 | 0.00 | 78 | 1028.4 |
| 20260831075645 | 18 | 124 | 1.6 | 8.0 | 0.00 | 0.00 | 0.00 | 78 | 1028.4 |
| 20260831075107 | 18 | 124 | 3.2 | 8.0 | 0.00 | 0.00 | 0.00 | 78 | 1028.4 |
| 20260831075033 | 18 | 114 | 1.6 | 8.0 | 0.00 | 0.00 | 0.00 | 78 | 1028.4 |
| 20260831074014 | 18 | 114 | 3.2 | 9.7 | 0.00 | 0.00 | 0.00 | 78 | 1028.4 |
| 20260831073446 | 18 | 115 | 4.8 | 12.9 | 0.00 | 0.00 | 0.00 | 78 | 1028.3 |
| 20260831072920 | 18 | 114 | 4.8 | 14.5 | 0.00 | 0.00 | 0.00 | 77 | 1028.2 |
| 20260831072353 | 18 | 122 | 3.2 | 9.7 | 0.00 | 0.00 | 0.00 | 77 | 1028.1 |
| 20260831071829 | 18 | 118 | 4.8 | 11.3 | 0.00 | 0.00 | 0.00 | 76 | 1028.1 |
| 20260831071301 | 18 | 124 | 4.8 | 11.3 | 0.00 | 0.00 | 0.00 | 76 | 1028.0 |
| 20260831070959 | 18 | 123 | 3.2 | 12.9 | 0.00 | 0.00 | 0.00 | 76 | 1028.0 |
| 20260831070221 | 18 | 122 | 3.2 | 11.3 | 0.00 | 0.00 | 0.00 | 76 | 1028.0 |
| 20260831065643 | 18 | 124 | 1.6 | 11.3 | 0.00 | 0.00 | 0.00 | 76 | 1027.9 |
| 20260831065115 | 18 | 149 | 3.2 | 11.3 | 0.00 | 0.00 | 0.00 | 76 | 1027.9 |
| 20260831064548 | 18 | 126 | 3.2 | 11.3 | 0.00 | 0.00 | 0.00 | 76 | 1027.9 |
| 20260831064018 | 18 | 116 | 3.2 | 11.3 | 0.00 | 0.00 | 0.00 | 76 | 1027.9 |
| 20260831063505 | 18 | 125 | 3.2 | 17.7 | 0.00 | 0.00 | 0.00 | 75 | 1027.8 |
| 20260831063017 | 18 | 101 | 3.2 | 17.7 | 0.00 | 0.00 | 0.00 | 76 | 1027.7 |
| 20260831062504 | 18 | 115 | 3.2 | 17.7 | 0.00 | 0.00 | 0.00 | 76 | 1027.7 |
| 20260831062003 | 18 | 126 | 4.8 | 17.7 | 0.00 | 0.00 | 0.00 | 76 | 1027.6 |
| 20260831061503 | 18 | 91 | 6.4 | 17.7 | 0.00 | 0.00 | 0.00 | 76 | 1027.6 |
| 20260831061223 | 18 | 132 | 6.4 | 24.1 | 0.00 | 0.00 | 0.00 | 76 | 1027.6 |
| 20260831060501 | 19 | 106 | 6.4 | 24.1 | 0.00 | 0.00 | 0.00 | 77 | 1027.6 |
| 20260831060222 | 19 | 100 | 9.7 | 22.5 | 0.00 | 0.00 | 0.00 | 76 | 1027.5 |
| 20260831055457 | 19 | 126 | 9.7 | 22.5 | 0.00 | 0.00 | 0.00 | 76 | 1027.5 |
| 20260831054957 | 19 | 91 | 8.0 | 22.5 | 0.00 | 0.00 | 0.00 | 76 | 1027.6 |
| 20260831054456 | 19 | 106 | 8.0 | 19.3 | 0.00 | 0.00 | 0.00 | 76 | 1027.5 |
| 20260831053955 | 19 | 132 | 8.0 | 19.3 | 0.00 | 0.00 | 0.00 | 76 | 1027.5 |
| 20260831053457 | 19 | 130 | 4.8 | 20.9 | 0.00 | 0.00 | 0.00 | 76 | 1027.5 |
| 20260831052955 | 19 | 127 | 4.8 | 20.9 | 0.00 | 0.00 | 0.00 | 75 | 1027.5 |
| 20260831052507 | 19 | 111 | 6.4 | 20.9 | 0.00 | 0.00 | 0.00 | 75 | 1027.5 |
| 20260831051956 | 19 | 131 | 8.0 | 20.9 | 0.00 | 0.00 | 0.00 | 74 | 1027.5 |
| 20260831051459 | 20 | 107 | 8.0 | 22.5 | 0.00 | 0.00 | 0.00 | 74 | 1027.5 |
| 20260831050952 | 20 | 114 | 8.0 | 22.5 | 0.00 | 0.00 | 0.00 | 73 | 1027.6 |
| 20260831050712 | 20 | 112 | 6.4 | 20.9 | 0.00 | 0.00 | 0.00 | 73 | 1027.6 |
| 20260831050438 | 20 | 149 | 6.4 | 17.7 | 0.00 | 0.00 | 0.00 | 73 | 1027.6 |
| 20260831045453 | 20 | 112 | 6.4 | 16.1 | 0.00 | 0.00 | 0.00 | 73 | 1027.7 |
| 20260831044953 | 20 | 129 | 6.4 | 17.7 | 0.00 | 0.00 | 0.00 | 73 | 1027.7 |
| 20260831044451 | 20 | 103 | 6.4 | 20.9 | 0.00 | 0.00 | 0.00 | 72 | 1027.8 |
| 20260831043950 | 20 | 95 | 8.0 | 20.9 | 0.00 | 0.00 | 0.00 | 71 | 1027.7 |
| 20260831043451 | 20 | 89 | 8.0 | 22.5 | 0.00 | 0.00 | 0.00 | 70 | 1027.7 |
| 20260831042951 | 21 | 130 | 8.0 | 22.5 | 0.00 | 0.00 | 0.00 | 69 | 1027.7 |
| 20260831042724 | 21 | 114 | 8.0 | 20.9 | 0.00 | 0.00 | 0.00 | 69 | 1027.8 |
| 20260831041948 | 21 | 113 | 8.0 | 20.9 | 0.00 | 0.00 | 0.00 | 69 | 1027.8 |
| 20260831041451 | 21 | 97 | 9.7 | 20.9 | 0.00 | 0.00 | 0.00 | 68 | 1027.8 |
| 20260831041217 | 21 | 131 | 9.7 | 19.3 | 0.00 | 0.00 | 0.00 | 68 | 1027.8 |
| 20260831040710 | 21 | 148 | 6.4 | 17.7 | 0.00 | 0.00 | 0.00 | 68 | 1027.8 |
| 20260831040208 | 21 | 122 | 6.4 | 17.7 | 0.00 | 0.00 | 0.00 | 69 | 1027.9 |
| 20260831035451 | 21 | 136 | 6.4 | 17.7 | 0.00 | 0.00 | 0.00 | 70 | 1027.9 |
| 20260831034935 | 21 | 165 | 6.4 | 19.3 | 0.00 | 0.00 | 0.00 | 69 | 1027.9 |
| 20260831034435 | 21 | 114 | 8.0 | 19.3 | 0.00 | 0.00 | 0.00 | 69 | 1028.0 |
| 20260831034139 | 21 | 65 | 8.0 | 19.3 | 0.00 | 0.00 | 0.00 | 68 | 1028.0 |
| 20260831034022 | 21 | 110 | 8.0 | 19.3 | 0.00 | 0.00 | 0.00 | 69 | 1028.0 |
| 20260831032929 | 21 | 118 | 6.4 | 25.7 | 0.00 | 0.00 | 0.00 | 68 | 1028.0 |
| 20260831032427 | 21 | 110 | 8.0 | 25.7 | 0.00 | 0.00 | 0.00 | 69 | 1028.0 |
| 20260831031927 | 21 | 105 | 9.7 | 25.7 | 0.00 | 0.00 | 0.00 | 69 | 1028.0 |
| 20260831031427 | 21 | 85 | 9.7 | 25.7 | 0.00 | 0.00 | 0.00 | 69 | 1028.1 |
| 20260831030923 | 21 | 115 | 8.0 | 20.9 | 0.00 | 0.00 | 0.00 | 68 | 1028.2 |
| 20260831030423 | 21 | 107 | 6.4 | 19.3 | 0.00 | 0.00 | 0.00 | 68 | 1028.2 |
| 20260831025924 | 22 | 105 | 6.4 | 20.9 | 0.00 | 0.00 | 0.00 | 67 | 1028.3 |
| 20260831025645 | 22 | 106 | 6.4 | 20.9 | 0.00 | 0.00 | 0.00 | 66 | 1028.3 |
| 20260831024922 | 22 | 105 | 6.4 | 19.3 | 0.00 | 0.00 | 0.00 | 66 | 1028.3 |
| 20260831024420 | 22 | 31 | 9.7 | 24.1 | 0.00 | 0.00 | 0.00 | 68 | 1028.3 |
| 20260831023921 | 22 | 126 | 9.7 | 24.1 | 0.00 | 0.00 | 0.00 | 67 | 1028.4 |
| 20260831023643 | 22 | 122 | 9.7 | 24.1 | 0.00 | 0.00 | 0.00 | 66 | 1028.4 |
| 20260831023155 | 22 | 139 | 9.7 | 24.1 | 0.00 | 0.00 | 0.00 | 65 | 1028.4 |
| 20260831022419 | 22 | 119 | 8.0 | 20.9 | 0.00 | 0.00 | 0.00 | 61 | 1028.4 |
| 20260831021919 | 22 | 129 | 6.4 | 20.9 | 0.00 | 0.00 | 0.00 | 59 | 1028.4 |
| 20260831021416 | 22 | 108 | 6.4 | 17.7 | 0.00 | 0.00 | 0.00 | 60 | 1028.4 |